Weather History for KARA - February, 2013

Change the Weather History Date:

Monday, February 11, 2013

  Actual Average Record
Temperature  
Mean Temperature 65 °F 55 °F  
Max Temperature 72 °F 65 °F 80 °F (1999)
Min Temperature 57 °F 45 °F 23 °F (1973)
Degree Days  
Heating Degree Days 0 11  
Month to date heating degree days 32 126  
Since 1 July heating degree days 748 1063  
Cooling Degree Days 0 1  
Month to date cooling degree days 8 7  
Year to date cooling degree days 46 19  
Growing Degree Days 14 (Base 50)    
Moisture  
Dew Point 57 °F    
Average Humidity 84    
Maximum Humidity 90    
Minimum Humidity 78    
Precipitation  
Precipitation 0.92 in 0.16 in 2.11 in (2014)
Month to date precipitation 2.54 1.51  
Year to date precipitation 15.34 6.73  
Sea Level Pressure  
Sea Level Pressure 30.03 in    
Wind  
Wind Speed 13 mph (NE)    
Max Wind Speed 26 mph    
Max Gust Speed 32 mph    
Visibility 7 miles    
Events Rain , Thunderstorm    
T = Trace of Precipitation, MM = Missing Value Source: NWS Daily Summary

Daily Weather History Graph

Daily Weather History Graph

Search for Another Location

Airport or City:

Trip Planner

Search our weather history database for the weather conditions in past years. The results will help you decide how hot, cold, wet, or windy it might be!

Date:

Astronomy

Feb. 11, 2013 Rise Set
Actual Time 6:50 AM CST 5:53 PM CST
Civil Twilight 6:25 AM CST 6:17 PM CST
Nautical Twilight 5:57 AM CST 6:46 PM CST
Astronomical Twilight 5:29 AM CST 7:14 PM CST
Moon 7:25 AM CST (2/11) 7:37 PM CST (2/11)
Length of Visible Light 11h 51m
Length of Day
11h 02m
Waxing Crescent, 3% of the Moon is Illuminated
Feb 11
Waxing Crescent
Feb 17
First Quarter
Feb 25
Full
Mar 4
Last Quarter
Mar 11
New

Hourly Weather History & Observations

Time (CST) Temp. Dew Point Humidity Pressure Visibility Wind Dir Wind Speed Gust Speed Precip Events Conditions
12:23 AM 71.6 °F 68.0 °F 88% 29.98 in 7.0 mi South 9.2 mph - N/A   Mostly Cloudy
12:41 AM 71.6 °F 68.0 °F 88% 29.98 in 6.0 mi South 9.2 mph - N/A   Overcast
12:53 AM 72.0 °F 68.0 °F 87% 29.97 in 7.0 mi South 10.4 mph - N/A   Overcast
1:53 AM 72.0 °F 68.0 °F 87% 29.97 in 7.0 mi South 11.5 mph - N/A   Mostly Cloudy
2:53 AM 72.0 °F 68.0 °F 87% 29.97 in 7.0 mi South 6.9 mph - 0.00 in   Mostly Cloudy
3:28 AM 71.6 °F 68.0 °F 88% 29.98 in 6.0 mi South 6.9 mph - N/A   Overcast
3:49 AM 71.6 °F 68.0 °F 88% 29.97 in 6.0 mi South 5.8 mph - N/A   Mostly Cloudy
3:53 AM 71.1 °F 68.0 °F 90% 29.97 in 5.0 mi South 6.9 mph - N/A   Mostly Cloudy
4:53 AM 71.1 °F 68.0 °F 90% 29.99 in 4.0 mi WSW 4.6 mph - N/A   Overcast
5:04 AM 71.6 °F 68.0 °F 88% 29.99 in 2.5 mi WSW 3.5 mph - N/A   Overcast
5:23 AM 71.6 °F 68.0 °F 88% 30.01 in 1.2 mi NNW 11.5 mph 20.7 mph N/A   Overcast
5:32 AM 64.4 °F 59.0 °F 83% 30.03 in 4.0 mi North 19.6 mph 29.9 mph N/A   Haze
5:40 AM 62.6 °F 55.4 °F 77% 30.03 in 10.0 mi NNE 18.4 mph 25.3 mph N/A   Overcast
5:53 AM 62.1 °F 55.0 °F 78% 30.03 in 10.0 mi NNE 23.0 mph 28.8 mph 0.00 in Rain Light Rain
6:09 AM 62.6 °F 55.4 °F 77% 30.04 in 8.0 mi NNE 20.7 mph 28.8 mph 0.00 in Rain Light Rain
6:53 AM 60.1 °F 54.0 °F 80% 30.06 in 10.0 mi NNE 18.4 mph 26.5 mph 0.00 in Rain Light Rain
7:53 AM 60.1 °F 53.1 °F 78% 30.09 in 8.0 mi NNE 16.1 mph - 0.00 in Rain Light Rain
8:33 AM 59.0 °F 53.6 °F 82% 30.09 in 10.0 mi NE 19.6 mph 27.6 mph 0.00 in Rain Light Rain
8:53 AM 59.0 °F 54.0 °F 83% 30.10 in 10.0 mi NNE 16.1 mph - 0.00 in   Overcast
9:00 AM 59.0 °F 53.6 °F 82% 30.11 in 10.0 mi NNE 12.7 mph - 0.00 in Rain Light Rain
9:33 AM 57.2 °F 53.6 °F 88% 30.10 in 2.0 mi NE 11.5 mph - 0.08 in Rain Light Rain
9:41 AM 59.0 °F 53.6 °F 82% 30.11 in 6.0 mi NE 13.8 mph - 0.09 in Rain Light Rain
9:53 AM 59.0 °F 54.0 °F 83% 30.10 in 10.0 mi NE 19.6 mph 24.2 mph 0.10 in Rain Light Rain
10:17 AM 57.2 °F 53.6 °F 88% 30.13 in 10.0 mi North 16.1 mph - 0.00 in Rain Light Rain
10:44 AM 57.2 °F 53.6 °F 88% 30.11 in 10.0 mi NNE 20.7 mph 25.3 mph 0.01 in Rain Light Rain
10:53 AM 57.0 °F 53.1 °F 87% 30.11 in 5.0 mi NNE 16.1 mph 25.3 mph 0.03 in Rain Heavy Rain
11:53 AM 57.9 °F 54.0 °F 87% 30.09 in 10.0 mi NE 13.8 mph - 0.02 in   Overcast
12:09 PM 57.2 °F 53.6 °F 88% 30.08 in 10.0 mi NE 17.3 mph 26.5 mph N/A   Overcast
12:53 PM 57.9 °F 53.1 °F 84% 30.05 in 9.0 mi East 15.0 mph - 0.00 in Rain Light Rain
1:53 PM 60.1 °F 54.0 °F 80% 30.01 in 10.0 mi ENE 10.4 mph - 0.00 in   Overcast
2:48 PM 59.0 °F 55.4 °F 88% 30.03 in 4.0 mi ENE 6.9 mph - 0.07 in Rain Heavy Rain
2:53 PM 59.0 °F 55.0 °F 87% 30.03 in 3.0 mi ENE 8.1 mph - 0.09 in Rain Rain
3:27 PM 59.0 °F 55.4 °F 88% 30.03 in 7.0 mi NE 10.4 mph - 0.01 in Rain Rain
3:41 PM 59.0 °F 55.4 °F 88% 30.03 in 4.0 mi NNE 9.2 mph - 0.04 in Rain Light Rain
3:50 PM 59.0 °F 55.4 °F 88% 30.04 in 5.0 mi NE 11.5 mph 17.3 mph 0.05 in Rain Rain
3:53 PM 59.0 °F 55.0 °F 87% 30.04 in 5.0 mi NE 15.0 mph - 0.05 in Rain Light Rain
4:44 PM 59.0 °F 55.4 °F 88% 30.01 in 8.0 mi ENE 12.7 mph - 0.04 in Rain Light Rain
4:53 PM 59.0 °F 55.0 °F 87% 30.01 in 10.0 mi ENE 9.2 mph 20.7 mph 0.04 in Rain Light Rain
5:08 PM 59.0 °F 55.4 °F 88% 30.02 in 10.0 mi ENE 10.4 mph - 0.00 in   Overcast
5:32 PM 59.0 °F 55.4 °F 88% 30.01 in 10.0 mi ENE 13.8 mph - 0.00 in   Overcast
5:51 PM 59.0 °F 55.4 °F 88% 30.02 in 7.0 mi NE 11.5 mph - 0.02 in Rain Light Rain
5:53 PM 59.0 °F 55.0 °F 87% 30.03 in 8.0 mi NE 11.5 mph - 0.02 in Rain Light Rain
6:44 PM 59.0 °F 55.4 °F 88% 30.02 in 3.0 mi NE 13.8 mph - 0.11 in Rain Rain
6:53 PM 59.0 °F 55.0 °F 87% 30.03 in 4.0 mi NE 13.8 mph - 0.11 in Rain Light Rain
7:53 PM 59.0 °F 55.9 °F 90% 30.04 in 6.0 mi NNE 11.5 mph 20.7 mph 0.04 in Rain Light Rain
8:53 PM 59.0 °F 55.0 °F 87% 30.02 in 8.0 mi NE 13.8 mph - 0.03 in Rain Light Rain
9:53 PM 59.0 °F 55.0 °F 87% 29.99 in 9.0 mi ENE 13.8 mph 21.9 mph 0.00 in Rain Light Rain
10:07 PM 59.0 °F 55.4 °F 88% 30.00 in 4.0 mi ENE 12.7 mph - 0.08 in Rain , Thunderstorm Heavy Thunderstorms and Rain
10:22 PM 59.0 °F 55.4 °F 88% 30.00 in 7.0 mi ENE 13.8 mph - 0.14 in Rain Light Rain
10:29 PM 59.0 °F 55.4 °F 88% 30.01 in 8.0 mi ENE 11.5 mph - 0.14 in Rain , Thunderstorm Light Rain
10:40 PM 59.0 °F 55.4 °F 88% 30.00 in 10.0 mi ENE 12.7 mph - 0.14 in Rain , Thunderstorm Light Rain
10:53 PM 59.0 °F 55.0 °F 87% 30.02 in 9.0 mi NNW 13.8 mph 19.6 mph 0.14 in Rain , Thunderstorm Light Rain
11:02 PM 57.2 °F 55.4 °F 94% 30.04 in 2.5 mi North 13.8 mph 24.2 mph 0.15 in Rain , Thunderstorm Heavy Rain
11:13 PM 57.2 °F 55.4 °F 94% 30.04 in 3.0 mi North 11.5 mph - 0.21 in Rain Heavy Rain
11:20 PM 57.2 °F 55.4 °F 94% 30.05 in 5.0 mi NNE 10.4 mph - 0.21 in Rain , Thunderstorm Light Rain
11:30 PM 57.2 °F 55.4 °F 94% 30.06 in 5.0 mi NNW 11.5 mph - 0.24 in Rain , Thunderstorm Rain
11:38 PM 57.2 °F 53.6 °F 88% 30.05 in 5.0 mi NNE 15.0 mph 19.6 mph 0.25 in Rain , Thunderstorm Rain
11:47 PM 57.2 °F 53.6 °F 88% 30.04 in 6.0 mi NE 12.7 mph 18.4 mph 0.25 in Rain , Thunderstorm Light Rain
11:53 PM 57.9 °F 54.0 °F 87% 30.04 in 9.0 mi NE 10.4 mph 18.4 mph 0.25 in Rain Light Rain